Weather History for KDVP - April, 2013

Change the Weather History Date:

Friday, April 12, 2013

  Actual Average (KOTG) Record (KOTG)
Temperature  
Mean Temperature 28 °F -  
Max Temperature 32 °F 52 °F 82 °F (1985)
Min Temperature 24 °F 32 °F 19 °F (2004)
Degree Days  
Heating Degree Days 37    
Moisture  
Dew Point 27 °F    
Average Humidity 95    
Maximum Humidity 100    
Minimum Humidity 83    
Precipitation  
Precipitation 0.00 in - - ()
Sea Level Pressure  
Sea Level Pressure 29.79 in    
Wind  
Wind Speed 15 mph (NW)    
Max Wind Speed 23 mph    
Max Gust Speed 26 mph    
Visibility 7 miles    
Events Snow    
Averages and records for this station are not official NWS values.
T = Trace of Precipitation, MM = Missing Value Source: NWS Daily Summary

Daily Weather History Graph

Daily Weather History Graph

Search for Another Location

Airport or City:

Trip Planner

Search our weather history database for the weather conditions in past years. The results will help you decide how hot, cold, wet, or windy it might be!

Date:

Astronomy

Apr. 12, 2013 Rise Set
Actual Time 6:44 AM CDT 8:03 PM CDT
Civil Twilight 6:14 AM CDT 8:33 PM CDT
Nautical Twilight 5:38 AM CDT 9:09 PM CDT
Astronomical Twilight 5:00 AM CDT 9:48 PM CDT
Moon 7:50 AM CDT (4/12) 10:40 PM CDT (4/12)
Length of Visible Light 14h 19m
Length of Day
13h 19m
Waxing Crescent, 5% of the Moon is Illuminated
Apr 12
Waxing Crescent
Apr 18
First Quarter
Apr 25
Full
May 2
Last Quarter
May 9
New

Hourly Weather History & Observations

Time (CDT) Temp. Windchill Dew Point Humidity Pressure Visibility Wind Dir Wind Speed Gust Speed Precip Events Conditions
12:15 AM - - - N/A% 29.70 in 3.0 mi North 15.0 mph - N/A   Unknown
12:35 AM 28.8 °F 17.0 °F 28.8 °F 100% 29.71 in 2.5 mi North 16.1 mph - N/A Snow Light Snow
12:55 AM 28.8 °F 17.9 °F 28.8 °F 100% 29.71 in 4.0 mi North 13.8 mph - N/A Snow Light Snow
1:15 AM 28.4 °F 17.0 °F 28.4 °F 100% 29.71 in 5.0 mi North 15.0 mph - N/A   Overcast
1:35 AM 28.6 °F 17.7 °F 28.6 °F 100% 29.71 in 7.0 mi NNW 13.8 mph - N/A Snow Light Snow
1:55 AM 28.4 °F 17.5 °F 28.4 °F 100% 29.72 in 5.0 mi North 13.8 mph 17.3 mph N/A   Overcast
2:15 AM 28.4 °F 17.5 °F 28.4 °F 100% 29.71 in 7.0 mi North 13.8 mph - N/A   Overcast
2:35 AM 28.4 °F 16.6 °F 28.4 °F 100% 29.71 in 4.0 mi North 16.1 mph - N/A   Overcast
2:55 AM 28.0 °F 16.5 °F 28.2 °F 100% 29.71 in 4.0 mi North 15.0 mph - N/A   Overcast
3:15 AM 28.0 °F 18.1 °F 28.2 °F 100% 29.71 in 4.0 mi NNW 11.5 mph - N/A   Overcast
3:35 AM 27.7 °F 18.2 °F 27.9 °F 100% 29.71 in 4.0 mi NNW 10.4 mph - N/A Snow Light Snow
3:55 AM 27.5 °F 16.8 °F 27.5 °F 100% 29.71 in 7.0 mi NNW 12.7 mph - N/A   Overcast
4:15 AM 27.3 °F 14.8 °F 27.3 °F 100% 29.71 in 4.0 mi North 17.3 mph - N/A Snow Light Snow
4:35 AM 27.1 °F 14.9 °F 27.1 °F 100% 29.71 in 3.0 mi North 16.1 mph - N/A Snow Light Snow
4:55 AM 26.6 °F 14.7 °F 26.6 °F 100% 29.71 in 3.0 mi NNW 15.0 mph - N/A Snow Light Snow
5:15 AM 26.6 °F 15.7 °F 26.6 °F 100% 29.72 in 4.0 mi NNW 12.7 mph - N/A Snow Light Snow
5:35 AM 26.2 °F 13.4 °F 26.1 °F 99% 29.71 in 7.0 mi NNW 17.3 mph - N/A Snow Light Snow
5:55 AM 26.4 °F 15.5 °F 26.2 °F 99% 29.71 in 7.0 mi North 12.7 mph - N/A Snow Light Snow
6:15 AM 26.4 °F 15.5 °F 26.2 °F 99% 29.72 in 10.0 mi NNW 12.7 mph - N/A   Overcast
6:35 AM 26.4 °F 15.5 °F 26.1 °F 99% 29.72 in 10.0 mi NNW 12.7 mph 17.3 mph N/A   Overcast
6:55 AM 26.4 °F 15.5 °F 26.1 °F 99% 29.73 in 10.0 mi NNW 12.7 mph - N/A   Overcast
7:15 AM 26.2 °F 15.2 °F 25.9 °F 99% 29.74 in 7.0 mi NNW 12.7 mph - N/A   Overcast
7:35 AM 26.4 °F 16.0 °F 26.2 °F 99% 29.74 in 7.0 mi NNW 11.5 mph - N/A   Overcast
7:55 AM 26.6 °F 16.8 °F 26.4 °F 99% 29.74 in 5.0 mi NNW 10.4 mph - N/A   Overcast
8:15 AM 27.0 °F 16.1 °F 26.6 °F 99% 29.74 in 7.0 mi NNW 12.7 mph - N/A   Overcast
8:35 AM 27.0 °F 14.3 °F 26.4 °F 98% 29.75 in 2.5 mi NW 17.3 mph - N/A   Overcast
8:55 AM 26.6 °F 14.3 °F 26.4 °F 99% 29.76 in 5.0 mi NW 16.1 mph - N/A   Overcast
9:15 AM 27.0 °F 14.7 °F 26.6 °F 99% 29.76 in 5.0 mi NW 16.1 mph - N/A   Overcast
9:35 AM 27.5 °F 14.6 °F 26.6 °F 96% 29.76 in 5.0 mi NW 18.4 mph - N/A   Overcast
9:55 AM 27.5 °F 14.6 °F 26.6 °F 96% 29.76 in 7.0 mi NW 18.4 mph - N/A   Overcast
10:15 AM 27.9 °F 14.4 °F 26.6 °F 95% 29.76 in 7.0 mi WNW 20.7 mph 26.5 mph N/A   Overcast
10:35 AM 28.0 °F 13.9 °F 26.6 °F 94% 29.77 in 5.0 mi NW 23.0 mph - N/A   Overcast
10:55 AM 28.4 °F 15.4 °F 27.0 °F 94% 29.78 in 7.0 mi NW 19.6 mph - N/A   Overcast
11:15 AM 28.8 °F 16.6 °F 27.0 °F 93% 29.79 in 10.0 mi NW 17.3 mph - N/A   Overcast
11:35 AM 29.5 °F 17.2 °F 27.3 °F 92% 29.79 in 10.0 mi NW 18.4 mph - N/A   Overcast
11:55 AM 29.7 °F 16.7 °F 27.1 °F 90% 29.80 in 10.0 mi NW 20.7 mph - N/A   Overcast
12:16 PM 29.7 °F 17.4 °F 27.1 °F 90% 29.79 in 7.0 mi NW 18.4 mph 24.2 mph N/A   Overcast
12:35 PM 30.6 °F 19.4 °F 27.5 °F 88% 29.79 in 10.0 mi NW 16.1 mph - N/A   Overcast
12:55 PM 30.4 °F 18.0 °F 27.3 °F 88% 29.79 in 10.0 mi NW 19.6 mph 23.0 mph N/A   Overcast
1:15 PM 30.6 °F 19.0 °F 26.6 °F 85% 29.80 in 10.0 mi NW 17.3 mph - N/A   Overcast
1:35 PM 30.9 °F 18.7 °F 27.0 °F 85% 29.80 in 10.0 mi NW 19.6 mph - N/A   Overcast
1:55 PM 31.5 °F 19.8 °F 27.3 °F 85% 29.81 in 10.0 mi WNW 18.4 mph - N/A   Overcast
2:15 PM 31.6 °F 20.0 °F 27.3 °F 84% 29.81 in 10.0 mi NW 18.4 mph - N/A   Overcast
2:35 PM 32.0 °F 20.5 °F 27.5 °F 83% 29.82 in 10.0 mi WNW 18.4 mph - N/A   Overcast
2:55 PM 32.0 °F 20.5 °F 27.7 °F 84% 29.82 in 10.0 mi WNW 18.4 mph - N/A   Overcast
3:15 PM 32.0 °F 20.8 °F 27.5 °F 83% 29.83 in 10.0 mi WNW 17.3 mph - N/A   Overcast
3:35 PM 31.6 °F 20.0 °F 27.1 °F 83% 29.83 in 10.0 mi WNW 18.4 mph - N/A   Overcast
3:55 PM 31.5 °F 19.8 °F 27.0 °F 83% 29.83 in 10.0 mi WNW 18.4 mph - N/A   Overcast
4:15 PM 31.5 °F 20.5 °F 27.1 °F 84% 29.83 in 10.0 mi NW 16.1 mph - N/A   Overcast
4:35 PM 31.1 °F 19.3 °F 27.5 °F 87% 29.83 in 10.0 mi WNW 18.4 mph 21.9 mph N/A   Overcast
4:55 PM 30.9 °F 19.8 °F 27.3 °F 86% 29.84 in 10.0 mi WNW 16.1 mph - N/A   Overcast
5:15 PM 30.2 °F 19.3 °F 27.5 °F 90% 29.85 in 7.0 mi NW 15.0 mph - N/A Snow Light Snow
5:35 PM 30.0 °F 19.1 °F 27.5 °F 90% 29.86 in 7.0 mi WNW 15.0 mph - N/A Snow Light Snow
5:55 PM 29.8 °F 18.9 °F 28.0 °F 93% 29.86 in 4.0 mi NW 15.0 mph - N/A Snow Light Snow
6:15 PM 29.3 °F 19.6 °F 28.0 °F 95% 29.87 in 2.5 mi NW 11.5 mph - N/A Snow Light Snow
6:35 PM 28.9 °F 18.6 °F 27.5 °F 94% 29.87 in 2.5 mi NW 12.7 mph - N/A Snow Light Snow
6:55 PM 29.1 °F 20.0 °F 28.4 °F 97% 29.87 in 4.0 mi WNW 10.4 mph - N/A Snow Light Snow
7:15 PM 29.1 °F 18.4 °F 28.2 °F 96% 29.87 in 4.0 mi WNW 13.8 mph - N/A Snow Light Snow
7:35 PM 28.9 °F 18.2 °F 28.2 °F 97% 29.87 in 5.0 mi WNW 13.8 mph - N/A Snow Light Snow
7:55 PM 28.4 °F 17.0 °F 27.3 °F 96% 29.87 in 4.0 mi WNW 15.0 mph - N/A Snow Light Snow
8:15 PM 28.0 °F 17.5 °F 27.3 °F 97% 29.87 in 7.0 mi WNW 12.7 mph - N/A Snow Light Snow
8:35 PM 27.7 °F 16.6 °F 26.8 °F 96% 29.88 in 7.0 mi WNW 13.8 mph - N/A Snow Light Snow
8:55 PM 27.5 °F 18.6 °F 26.8 °F 97% 29.88 in 7.0 mi WNW 9.2 mph - N/A Snow Light Snow
9:15 PM 26.1 °F 15.0 °F 25.3 °F 97% 29.89 in 10.0 mi WNW 12.7 mph - N/A   Scattered Clouds
9:35 PM 24.8 °F 14.6 °F 23.9 °F 96% 29.89 in 10.0 mi WNW 10.4 mph - N/A   Clear
9:55 PM 24.8 °F 14.0 °F 23.9 °F 96% 29.89 in 10.0 mi West 11.5 mph - N/A   Clear
10:15 PM 24.6 °F 15.1 °F 23.2 °F 94% 29.90 in 10.0 mi West 9.2 mph - N/A   Scattered Clouds
10:35 PM 25.2 °F 14.4 °F 23.5 °F 94% 29.90 in 10.0 mi West 11.5 mph - N/A   Overcast
10:55 PM 24.8 °F 14.0 °F 23.4 °F 94% 29.90 in 10.0 mi West 11.5 mph - N/A   Scattered Clouds
11:15 PM 25.2 °F 14.4 °F 23.9 °F 95% 29.90 in 10.0 mi West 11.5 mph - N/A   Mostly Cloudy
11:35 PM 25.0 °F 14.2 °F 23.9 °F 96% 29.90 in 10.0 mi West 11.5 mph - N/A   Mostly Cloudy
11:55 PM 24.6 °F 13.2 °F 23.7 °F 96% 29.90 in 10.0 mi West 12.7 mph - N/A   Mostly Cloudy